Temp
72 72 73 71 63 63 62 59 61 60 59 58 59 60 66 67 67 66 66 66 64 65 65 64 64 65 66 68 66 61 62 64 55 57 61 65 61 60 61 63 63 62 58
72 72 71 67 63 62 62 59 61 59 60 62 62 67 69 69 68 66 66 67 66 65 66 65 65 67 64 64 64 61 60 58 51 48 55 58 57 59 56 55 60 62 57
71 71 68 66 63 61 59 61 61 61 62 65 67 67 68 68 68 67 67 67 66 66 66 64 64 63 60 58 56 53 52 53 50 49 49 52 53 53 51 52 54 57 56
70 68 66 65 63 60 61 64 65 66 67 68 68 70 69 69 68 67 67 66 66 66 64 62 61 59 57 57 55 55 54 53 52 47 47 46 47 50 50 49 50 52 52
69 67 65 65 64 61 64 64 65 65 67 68 68 67 68 68 67 63 65 64 62 61 60 59 59 55 54 52 52 52 48 45 44 43 43 43 44 45 45 46 48 52 50
69 67 67 66 64 61 64 63 65 66 66 66 65 66 63 63 49 50 57 61 59 58 57 57 57 54 52 50 48 48 47 43 43 43 42 41 42 44 46 48 44 44 43
67 67 68 65 63 63 66 65 65 64 64 63 63 62 58 56 46 47 49 58 57 55 55 53 51 52 48 47 48 49 50 48 47 44 41 41 41 43 44 42 45 43 44
68 68 65 63 63 65 66 66 64 64 62 62 60 58 57 52 45 45 46 56 56 54 50 49 47 46 46 45 47 47 49 49 48 45 44 46 46 47 46 45 44 45 47
68 68 63 63 62 65 65 65 64 62 61 59 58 56 55 52 44 43 48 55 53 51 49 49 49 49 43 43 44 42 44 47 50 47 46 46 45 45 46 45 43 42 42
69 68 65 64 63 63 61 61 61 62 59 59 55 54 48 53 42 43 46 53 50 47 49 50 46 44 42 42 42 42 41 45 45 46 44 44 46 47 47 46 45 42 42
67 66 63 63 60 57 61 61 62 60 57 55 54 54 53 48 49 42 42 50 46 46 47 46 45 41 41 41 41 42 41 43 42 42 42 43 44 45 45 46 46 44 43
66 62 61 57 56 59 62 61 60 57 55 55 55 56 55 52 44 43 41 41 43 43 43 43 43 40 40 40 42 40 40 42 40 41 41 41 43 44 44 46 47 48 49
61 55 55 52 52 53 55 56 58 57 58 57 57 54 51 50 49 43 42 41 43 43 43 42 41 40 40 41 40 41 42 41 38 39 41 44 44 44 44 45 48 50 49
58 54 50 47 48 48 53 57 58 57 57 55 53 49 46 46 44 44 45 44 42 43 42 41 40 39 39 39 40 41 42 41 39 40 43 48 43 42 43 44 43 44 44
55 51 48 46 46 43 49 54 53 49 49 52 47 45 43 41 41 41 41 40 40 40 40 40 38 38 37 37 38 41 39 41 43 45 46 41 40 41 42 44 44 45 45
53 51 49 45 45 47 50 49 39 41 40 39 39 43 46 40 39 39 39 38 38 38 39 37 37 36 35 36 37 37 38 39 44 47 42 39 39 41 41 44 45 46 45
51 51 46 47 52 51 55 55 52 44 41 40 39 39 39 38 39 39 39 38 38 40 37 37 36 37 37 37 36 37 37 41 44 40 39 39 43 43 43 44 45 45 45
51 46 47 46 53 57 56 56 56 52 45 44 41 41 39 39 39 38 38 40 42 42 39 37 36 37 37 37 37 37 38 39 39 41 42 46 46 43 43 43 45 45 45
52 49 50 52 57 55 57 55 54 49 45 42 44 44 43 40 39 39 40 42 40 39 38 38 38 38 38 39 39 39 40 40 39 43 46 47 45 44 44 46 45 40 42
48 45 48 56 57 57 56 54 52 47 43 41 40 43 43 44 43 41 41 41 41 40 39 39 39 39 39 38 39 39 40 42 43 44 43 43 43 44 46 46 46 45 45
48 52 43 58 57 55 54 52 49 45 42 40 41 41 33 44 41 41 40 40 39 39 39 39 39 39 39 39 39 39 39 39 40 41 42 44 46 46 47 47 46 46 46
54 57 58 56 55 54 52 51 47 44 41 40 42 43 35 45 42 41 40 41 41 42 42 43 42 41 40 39 39 39 39 40 41 43 46 47 47 48 48 47 47 48 50
56 57 55 54 53 44 50 47 45 43 40 40 42 43 43 44 42 41 40 41 43 44 44 46 46 44 43 42 42 43 41 41 42 45 46 47 48 47 49 49 48 47 47
57 55 55 54 53 52 48 46 43 39 40 39 42 42 41 42 42 41 41 42 42 44 46 47 48 48 45 44 44 44 42 45 54 56 55 57 56 55 56 54 52 52 51
54 56 55 54 52 50 49 46 42 41 40 39 41 42 42 44 42 41 41 42 42 44 46 47 48 48 47 47 48 49 41 34 50 43 58 58 56 55 54 52 50 51 52
55 55 54 53 50 49 48 45 41 40 39 39 41 42 43 43 42 42 41 43 42 45 45 46 47 48 50 51 44 37 35 35 46 36 55 58 57 57 57 54 53 54 54
MSLP
1009.00 1008.03 1007.79 1008.47 1009.45 1009.54 1009.43 1010.16 1010.59 1010.96 1010.94 1011.03 1011.35 1011.55 1011.98 1012.72 1013.09 1013.22 1013.20 1013.08 1013.33 1013.07 1013.17 1013.16 1012.70 1012.41 1012.16 1011.76 1011.80 1011.84 1011.62 1011.06 1010.82 1010.77 1010.66 1010.19 1010.54 1010.46 1010.39 1010.29 1010.10 1009.79 1010.12
1009.48 1009.07 1008.55 1009.12 1009.90 1010.35 1010.64 1011.04 1011.51 1011.20 1011.35 1011.42 1011.89 1011.24 1011.79 1012.36 1012.71 1012.84 1012.79 1012.70 1012.58 1012.60 1012.37 1012.28 1012.02 1011.71 1011.79 1011.60 1011.63 1011.65 1011.71 1011.77 1011.61 1010.95 1010.64 1010.20 1010.05 1010.01 1010.12 1010.12 1009.59 1009.28 1009.55
1010.18 1009.64 1009.41 1009.54 1010.22 1010.74 1011.42 1011.90 1012.10 1011.86 1011.66 1011.85 1012.06 1011.69 1011.76 1012.24 1012.44 1012.60 1012.56 1012.58 1012.40 1012.44 1012.25 1012.00 1011.82 1011.53 1011.80 1011.66 1011.91 1011.82 1011.81 1011.71 1011.47 1010.90 1010.47 1010.38 1010.14 1010.16 1010.01 1009.75 1009.22 1008.97 1009.04
1010.61 1010.27 1010.30 1010.22 1010.44 1011.22 1011.81 1012.22 1012.27 1012.36 1012.03 1012.06 1012.00 1011.89 1011.99 1012.18 1012.36 1012.38 1012.33 1012.47 1012.20 1012.05 1012.16 1012.05 1011.99 1012.08 1011.99 1011.84 1011.74 1011.61 1011.48 1011.40 1011.21 1010.88 1010.50 1010.26 1010.10 1009.73 1009.57 1009.30 1008.92 1008.97 1008.65
1010.80 1010.40 1010.27 1010.28 1010.55 1010.86 1011.78 1012.50 1012.43 1012.78 1012.56 1012.16 1012.12 1012.22 1012.29 1012.39 1012.51 1012.65 1012.55 1012.36 1012.31 1012.22 1012.32 1012.23 1012.17 1012.50 1012.33 1012.29 1012.07 1011.86 1011.94 1011.72 1011.32 1010.96 1010.67 1010.27 1009.81 1009.37 1009.17 1009.24 1008.85 1008.31 1008.63
1011.01 1010.85 1010.96 1010.59 1010.52 1011.16 1011.39 1012.35 1012.59 1012.58 1012.39 1011.98 1012.24 1012.36 1012.60 1013.00 1013.63 1013.29 1012.89 1012.71 1012.58 1012.39 1012.26 1012.27 1012.36 1012.44 1012.47 1012.42 1012.49 1012.37 1012.15 1011.79 1011.28 1010.86 1010.57 1010.18 1009.78 1009.15 1009.22 1008.93 1009.18 1008.67 1008.43
1011.11 1010.86 1010.95 1011.09 1010.90 1011.30 1011.74 1012.13 1012.26 1012.25 1012.31 1012.11 1012.38 1012.84 1013.11 1013.80 1014.06 1013.94 1013.70 1013.07 1012.93 1012.74 1012.60 1012.76 1012.62 1012.40 1013.01 1012.71 1012.18 1011.82 1011.45 1011.35 1011.10 1010.86 1010.48 1010.08 1009.68 1009.48 1009.33 1009.19 1008.98 1008.94 1008.55
1011.20 1010.97 1010.81 1011.26 1011.48 1011.29 1011.63 1011.82 1012.15 1012.24 1012.33 1012.39 1012.64 1013.42 1013.62 1014.40 1014.49 1014.35 1013.75 1013.22 1013.01 1012.94 1013.08 1013.05 1013.30 1012.95 1012.86 1012.73 1012.02 1011.67 1011.25 1010.86 1010.65 1010.63 1010.29 1009.77 1009.54 1009.32 1009.14 1008.92 1008.80 1008.71 1008.53
1011.32 1010.86 1010.73 1010.95 1011.24 1011.34 1011.65 1011.75 1012.07 1012.40 1012.51 1012.82 1013.48 1013.82 1013.95 1014.65 1014.80 1014.83 1013.66 1012.87 1013.06 1012.99 1013.21 1013.08 1013.21 1012.92 1013.06 1012.72 1012.25 1011.93 1011.47 1010.81 1010.25 1010.19 1009.89 1009.61 1009.25 1008.98 1008.78 1008.55 1008.40 1008.38 1008.05
1011.03 1010.57 1010.77 1010.98 1011.20 1011.43 1011.68 1011.87 1012.24 1012.59 1012.92 1013.40 1013.88 1014.55 1014.78 1014.49 1015.41 1014.74 1014.11 1013.30 1013.29 1013.47 1013.20 1012.97 1013.23 1013.30 1013.12 1012.96 1012.67 1012.05 1011.56 1010.78 1010.35 1009.79 1009.60 1009.17 1008.82 1008.57 1008.40 1008.14 1008.21 1008.13 1008.04
1010.79 1010.71 1010.78 1011.16 1011.56 1011.90 1011.92 1012.17 1012.47 1012.91 1013.55 1013.84 1014.26 1014.74 1014.63 1015.17 1015.04 1014.91 1014.85 1013.97 1014.13 1013.72 1013.41 1013.37 1013.28 1013.35 1013.23 1013.09 1012.77 1012.18 1011.93 1011.31 1010.57 1009.98 1009.56 1009.17 1008.94 1008.74 1008.52 1008.40 1008.32 1008.30 1008.10
1010.89 1011.09 1011.52 1011.88 1012.19 1012.47 1012.34 1012.89 1013.18 1013.42 1013.77 1014.30 1014.18 1014.23 1014.58 1015.06 1015.19 1015.36 1015.23 1015.09 1014.74 1014.13 1013.87 1013.73 1013.58 1013.53 1013.35 1013.07 1012.59 1012.36 1011.91 1011.28 1010.67 1010.08 1009.75 1009.52 1009.23 1008.93 1008.74 1008.52 1008.30 1008.15 1008.01
1011.22 1011.69 1012.55 1012.95 1012.93 1013.22 1013.35 1013.36 1013.59 1013.93 1013.96 1014.02 1014.28 1014.46 1014.85 1015.32 1015.38 1015.66 1015.44 1015.16 1014.69 1014.38 1014.26 1014.11 1013.90 1013.63 1013.31 1012.93 1012.70 1012.29 1011.79 1011.41 1010.97 1010.49 1009.99 1009.51 1009.30 1009.14 1008.77 1008.34 1007.92 1007.62 1007.56
1011.70 1012.41 1013.03 1013.42 1013.91 1013.82 1014.55 1014.26 1014.26 1014.45 1014.46 1014.95 1015.26 1015.59 1015.75 1015.71 1016.01 1015.83 1015.42 1015.09 1014.91 1014.64 1014.55 1014.27 1014.01 1013.73 1013.42 1013.19 1012.74 1012.37 1012.02 1011.65 1011.37 1010.80 1010.19 1009.57 1009.59 1009.15 1008.59 1008.26 1007.88 1007.55 1007.30
1012.15 1012.86 1013.64 1014.38 1014.60 1014.57 1015.45 1015.53 1015.60 1016.41 1016.16 1016.05 1016.28 1016.35 1016.48 1016.44 1016.52 1016.28 1015.86 1015.60 1015.32 1015.10 1014.74 1014.36 1014.03 1013.68 1013.49 1013.28 1012.94 1012.53 1012.30 1011.90 1011.30 1010.78 1010.34 1010.22 1009.78 1009.26 1008.70 1008.24 1007.90 1007.60 1007.37
1012.82 1013.36 1013.78 1014.24 1015.12 1015.62 1015.74 1016.31 1017.13 1016.99 1017.19 1017.20 1017.23 1017.06 1016.81 1017.00 1016.79 1016.44 1016.23 1015.98 1015.64 1015.27 1014.86 1014.57 1014.32 1014.11 1013.90 1013.60 1013.24 1012.86 1012.58 1012.18 1011.53 1010.88 1010.82 1010.49 1010.10 1009.52 1008.97 1008.50 1008.13 1007.96 1007.87
1013.08 1013.70 1014.29 1014.50 1014.86 1015.18 1015.18 1015.35 1015.97 1017.40 1017.58 1017.68 1017.69 1017.62 1017.39 1017.22 1016.92 1016.75 1016.44 1016.20 1015.89 1015.33 1015.21 1015.03 1014.80 1014.52 1014.19 1013.88 1013.58 1013.26 1012.83 1012.34 1011.82 1011.66 1011.15 1010.75 1010.30 1009.73 1009.21 1008.90 1008.71 1008.63 1008.64
1013.65 1014.08 1014.41 1014.84 1014.82 1014.81 1015.24 1015.66 1015.96 1016.34 1017.18 1017.67 1017.90 1017.82 1017.49 1017.35 1017.27 1016.92 1016.65 1016.33 1015.94 1015.70 1015.63 1015.54 1015.30 1015.03 1014.58 1014.16 1013.74 1013.38 1012.97 1012.64 1012.23 1011.72 1011.32 1010.87 1010.43 1010.06 1009.70 1009.46 1009.37 1009.29 1009.30
1014.57 1014.84 1015.04 1015.10 1015.13 1015.47 1015.75 1015.95 1016.34 1017.02 1017.67 1018.07 1018.05 1017.70 1017.67 1017.68 1017.44 1017.22 1016.98 1016.61 1016.50 1016.34 1016.14 1015.90 1015.65 1015.25 1014.79 1014.35 1013.91 1013.47 1013.08 1012.70 1012.32 1011.79 1011.41 1011.04 1010.77 1010.43 1010.18 1010.01 1010.09 1010.12 1010.10
1015.27 1015.50 1015.34 1015.44 1015.79 1015.87 1016.03 1016.35 1016.76 1017.55 1018.15 1018.44 1018.38 1018.27 1018.21 1017.76 1017.64 1017.54 1017.38 1017.22 1016.99 1016.75 1016.42 1016.09 1015.73 1015.34 1014.97 1014.59 1014.14 1013.67 1013.24 1012.78 1012.33 1011.98 1011.66 1011.36 1011.05 1010.78 1010.67 1010.67 1010.67 1010.70 1010.82
1015.60 1015.57 1015.97 1015.94 1016.11 1016.31 1016.53 1016.88 1017.46 1018.10 1018.55 1018.74 1018.80 1018.99 1018.87 1018.41 1018.25 1017.98 1017.74 1017.50 1017.29 1017.01 1016.65 1016.23 1015.74 1015.39 1015.10 1014.74 1014.28 1013.94 1013.53 1013.14 1012.71 1012.34 1011.93 1011.58 1011.31 1011.23 1011.23 1011.24 1011.29 1011.37 1011.52
1015.67 1015.65 1015.93 1016.18 1016.58 1016.89 1017.21 1017.63 1018.13 1018.65 1018.94 1019.07 1019.12 1019.14 1019.09 1018.75 1018.60 1018.33 1018.05 1017.73 1017.38 1017.05 1016.68 1016.20 1015.79 1015.46 1015.24 1014.92 1014.54 1014.17 1013.81 1013.41 1012.99 1012.57 1012.21 1011.96 1011.84 1011.76 1011.76 1011.81 1011.90 1011.93 1011.94
1015.89 1016.13 1016.42 1016.78 1017.23 1017.72 1017.99 1018.49 1018.85 1019.14 1019.42 1019.58 1019.53 1019.41 1019.32 1019.16 1018.98 1018.71 1018.37 1017.96 1017.48 1017.06 1016.66 1016.22 1015.84 1015.60 1015.35 1015.06 1014.75 1014.43 1014.19 1013.94 1013.57 1013.02 1012.66 1012.50 1012.43 1012.43 1012.35 1012.30 1012.41 1012.51 1012.69
1016.35 1016.69 1016.94 1017.26 1017.73 1018.11 1018.60 1019.01 1019.44 1019.75 1019.98 1020.08 1019.95 1019.86 1019.82 1019.68 1019.41 1019.11 1018.65 1018.23 1017.71 1017.26 1016.92 1016.47 1016.12 1015.84 1015.61 1015.27 1014.94 1014.65 1014.55 1014.19 1013.50 1012.99 1012.80 1012.53 1012.50 1012.42 1012.47 1012.60 1012.78 1012.78 1012.97
1016.97 1017.17 1017.44 1017.91 1018.34 1018.67 1018.97 1019.55 1019.94 1020.27 1020.47 1020.56 1020.42 1020.23 1020.15 1019.93 1019.78 1019.48 1019.08 1018.63 1018.13 1017.64 1017.20 1016.92 1016.55 1016.28 1015.95 1015.56 1015.31 1014.98 1014.86 1014.59 1013.96 1013.69 1013.22 1013.04 1013.09 1013.14 1013.14 1013.21 1013.25 1013.19 1013.20
1017.57 1017.81 1018.11 1018.61 1018.94 1019.25 1019.49 1019.93 1020.41 1020.69 1020.81 1020.81 1020.68 1020.57 1020.43 1020.30 1020.17 1019.79 1019.50 1019.02 1018.54 1018.07 1017.78 1017.40 1017.08 1016.73 1016.31 1015.85 1016.02 1015.84 1015.40 1015.00 1014.55 1014.37 1013.84 1013.51 1013.44 1013.37 1013.31 1013.48 1013.47 1013.34 1013.30
Wind_Speed
1 4 4 5 9 6 7 6 2 4 5 8 9 9 9 7 6 6 7 6 8 8 8 9 10 9 9 9 8 7 10 11 10 10 9 10 10 11 9 9 12 9 7
6 10 7 10 7 6 7 5 3 6 6 9 7 8 7 6 6 6 7 6 7 8 9 9 10 8 10 10 7 10 10 10 7 11 11 10 10 11 7 9 11 7 8
10 11 5 8 7 7 5 1 1 4 5 5 5 5 5 4 4 5 5 6 6 9 9 8 10 9 10 7 8 7 4 7 7 7 8 7 6 5 8 8 10 7 7
11 10 8 8 9 6 3 1 1 1 3 5 4 3 2 1 3 4 5 7 7 7 7 7 6 6 8 9 8 9 8 9 9 7 7 7 7 8 5 8 6 6 5
10 5 4 6 8 7 4 1 2 4 4 3 3 3 2 2 4 7 6 6 6 5 4 5 5 9 10 9 7 9 9 7 6 6 7 7 7 4 3 1 7 4 6
6 2 2 5 7 5 6 5 5 5 2 4 4 3 5 7 9 10 6 4 4 5 6 7 8 8 10 9 10 12 10 7 9 7 6 7 8 2 3 4 3 2 2
5 4 3 4 5 4 5 5 5 4 3 5 5 6 8 8 11 10 9 5 6 7 8 9 8 8 10 9 10 11 10 9 10 8 8 6 6 4 4 5 7 4 4
3 2 3 1 2 4 5 5 3 3 4 5 6 6 7 9 11 12 11 7 7 8 8 7 8 7 8 11 12 11 11 10 8 6 8 9 7 7 7 6 6 4 4
5 2 2 2 3 4 4 4 4 4 5 6 7 6 7 8 12 11 12 8 9 9 7 6 8 8 12 15 11 9 11 9 7 11 10 12 11 10 10 5 5 4 2
7 3 2 2 4 4 4 5 4 5 6 6 7 6 7 7 11 12 14 7 8 7 6 7 8 8 11 11 10 8 9 10 11 10 8 8 7 2 6 2 1 1 1
7 4 1 1 4 4 5 5 5 6 7 6 6 5 7 9 9 13 13 9 7 7 7 7 7 11 10 9 10 8 9 12 10 7 6 4 6 6 3 3 2 1 2
5 4 6 7 5 3 6 6 6 6 7 5 4 4 5 8 11 12 10 11 11 7 7 7 7 10 9 9 9 11 11 9 6 4 4 4 4 3 3 3 4 5 5
3 9 7 9 6 7 6 6 7 6 5 5 5 6 7 7 8 10 9 11 13 9 7 8 10 9 8 6 10 11 8 6 5 4 5 5 7 5 6 5 4 5 6
8 9 10 7 6 11 6 6 6 5 6 6 6 6 6 7 7 7 8 8 10 8 9 6 8 7 7 8 6 6 6 5 4 5 5 7 4 5 4 3 2 3 2
9 9 8 8 9 9 7 6 8 10 9 6 6 6 6 6 7 9 10 7 7 8 7 3 4 5 6 6 5 6 5 5 5 5 6 5 5 5 4 3 2 2 4
7 5 4 7 6 5 8 9 12 12 11 11 9 8 5 7 9 12 11 11 12 11 4 5 5 5 6 6 5 5 4 5 5 5 6 5 5 5 4 4 3 4 6
6 5 5 6 5 6 5 4 6 7 9 9 6 9 8 8 11 11 10 9 9 8 7 6 5 5 4 5 5 4 4 5 6 4 5 5 5 4 6 5 5 5 7
7 8 5 5 3 6 4 4 4 6 5 5 7 7 8 11 11 11 12 7 7 10 7 7 6 5 5 5 4 3 3 3 4 4 4 4 5 5 4 4 5 6 7
4 5 6 5 4 5 4 5 6 7 6 5 4 4 8 9 7 7 8 8 7 7 6 5 4 5 4 5 5 5 5 4 4 4 4 5 4 4 4 5 7 7 7
7 10 8 6 5 5 5 5 7 6 5 4 5 6 6 5 7 7 7 7 6 5 5 4 5 5 4 5 5 6 6 6 6 5 4 4 3 3 5 6 6 6 7
6 6 7 6 5 5 6 7 6 5 4 5 5 5 5 5 6 5 5 4 4 4 5 5 4 4 4 5 5 5 5 4 4 3 3 3 4 5 5 6 6 7 7
7 7 6 6 6 6 7 6 6 5 5 5 4 4 5 5 6 6 6 5 4 4 4 5 4 4 4 5 5 5 5 4 5 4 4 5 5 5 5 6 6 6 8
8 8 7 7 7 5 7 6 5 6 5 4 4 4 5 5 6 5 6 5 6 5 5 5 6 5 5 5 4 5 4 4 4 4 4 4 5 5 5 7 6 6 6
9 9 8 8 7 7 6 6 6 7 5 3 4 4 5 5 6 7 7 6 5 6 6 6 6 8 6 6 5 4 3 4 3 5 6 7 7 7 8 6 6 7 6
9 8 8 8 7 7 7 8 7 6 4 3 4 4 4 5 5 6 6 7 6 7 7 7 7 9 9 9 9 9 8 7 7 4 6 7 7 7 5 4 4 5 6
9 9 9 7 7 7 7 7 6 5 4 3 4 4 5 5 5 6 5 7 6 7 8 7 9 10 10 9 10 9 7 7 7 7 5 4 4 4 4 6 6 5 5
Wind_Direction
76 52 29 49 68 65 81 71 43 94 132 127 148 160 176 200 208 222 245 257 252 260 259 261 268 268 266 273 259 248 254 280 286 288 295 288 272 276 280 286 294 282 293
350 325 336 66 82 67 62 61 97 114 146 151 175 156 169 196 212 230 248 252 259 265 268 270 272 289 289 289 281 289 297 288 274 277 280 292 278 277 265 294 291 281 280
345 345 26 64 77 80 82 76 46 128 131 148 168 160 172 196 222 240 265 273 267 268 279 284 291 299 299 317 305 302 306 287 258 268 278 280 291 280 281 276 264 287 273
331 353 23 77 102 97 112 202 146 322 157 164 166 150 149 199 273 274 271 269 276 287 302 312 328 328 315 309 306 294 289 302 297 281 269 266 259 260 259 289 289 277 290
350 28 100 118 115 113 112 241 221 240 220 144 125 106 76 354 13 319 294 299 316 332 359 351 346 339 326 330 320 321 315 303 304 303 305 303 293 254 248 280 279 286 272
337 13 178 135 127 132 142 193 211 219 178 123 111 89 64 52 25 32 359 36 23 359 347 342 339 324 340 332 336 318 307 301 293 291 290 290 315 324 307 304 319 290 282
319 210 177 141 122 144 160 188 201 175 142 109 92 88 83 71 31 23 358 22 350 356 352 350 336 356 342 333 314 313 309 309 301 303 299 298 288 293 289 290 286 289 278
315 189 123 140 159 168 177 187 157 119 111 97 81 85 89 61 33 16 337 2 356 3 1 357 356 343 2 341 327 318 318 318 320 313 306 304 304 299 288 266 265 273 263
318 216 159 143 202 187 177 146 124 119 92 76 85 83 79 63 29 12 349 352 360 6 2 356 349 351 5 348 336 329 315 314 316 326 307 303 295 281 272 260 237 226 251
311 290 158 205 205 171 141 118 109 108 95 96 89 82 62 54 37 23 6 11 11 355 339 356 30 8 357 346 330 325 326 328 330 329 326 315 302 302 328 168 198 202 317
303 300 58 118 85 103 116 107 111 95 100 96 96 78 61 40 49 26 17 13 360 345 349 349 347 5 351 343 329 354 343 324 333 322 313 2 24 23 14 45 46 325 287
301 52 82 72 50 26 95 80 81 89 90 92 71 53 46 32 39 26 4 4 355 350 349 341 347 350 341 334 338 350 343 350 336 338 38 18 2 351 347 322 285 252 253
131 95 71 52 39 51 48 85 91 89 71 47 23 22 30 23 17 16 5 358 7 357 349 348 354 348 340 343 360 358 355 9 348 355 13 3 1 336 315 304 274 245 258
111 97 83 73 65 58 38 57 62 49 46 31 27 37 21 22 13 359 8 7 357 352 346 348 353 348 360 1 355 7 2 14 355 358 1 8 336 330 323 331 301 309 283
106 106 101 106 75 74 60 50 81 53 34 49 50 37 19 20 8 3 9 356 352 347 333 341 360 14 14 12 14 19 356 3 4 8 9 353 334 331 341 334 328 344 65
104 112 105 110 114 120 128 101 65 79 72 68 55 29 75 35 6 13 359 352 352 350 16 14 9 16 19 12 2 352 346 343 8 3 10 332 331 337 336 356 13 48 61
123 107 109 100 121 135 108 98 103 99 89 67 59 50 43 29 21 9 4 356 10 16 39 26 21 15 1 355 350 345 340 355 13 353 329 327 348 335 353 22 40 65 71
89 96 107 106 140 98 93 80 70 70 63 58 57 33 36 24 8 5 2 1 34 40 34 26 10 4 353 351 344 339 332 327 321 332 338 353 6 351 11 28 55 72 70
80 99 104 115 98 95 95 79 79 79 73 57 33 39 31 6 1 11 4 43 36 27 15 12 356 354 343 339 345 344 344 338 331 351 3 9 2 7 25 62 74 62 66
91 96 103 108 115 83 80 86 82 77 77 71 48 33 11 31 32 22 27 26 22 10 350 338 348 350 344 339 337 337 346 357 359 3 4 1 6 18 54 65 59 71 72
113 111 92 94 77 76 78 76 76 82 86 77 59 33 339 28 20 9 6 358 351 349 337 331 330 333 334 329 332 343 348 340 340 341 356 17 47 57 58 62 65 71 80
119 104 90 80 81 76 76 74 75 80 80 76 61 52 359 39 21 9 1 348 338 329 329 337 337 335 336 331 332 342 348 357 3 7 33 43 55 62 66 68 70 72 79
109 101 91 86 83 104 79 77 82 77 76 65 57 52 38 26 17 2 351 342 348 349 350 351 0 354 344 339 341 2 4 359 353 337 35 52 59 63 71 79 70 63 68
103 100 95 83 73 81 88 85 83 69 72 56 56 54 40 19 13 360 351 347 345 358 9 10 13 16 356 351 355 9 12 354 22 50 63 78 91 100 98 85 57 60 84
109 105 93 81 80 78 83 76 71 71 70 53 46 46 43 26 13 358 353 352 356 8 19 20 14 11 7 9 21 21 15 353 31 13 63 72 81 83 83 80 77 75 94
105 98 87 86 78 71 70 78 73 74 73 66 49 37 45 27 7 357 351 0 356 13 18 18 13 18 15 17 14 354 353 5 22 8 24 53 73 71 76 89 94 85 88